Hourly Data Report for October 31, 2016

All times are specified in Local Standard Time (LST). Add 1 hour to adjust for Daylight Saving Time where and when it is observed.

KUGLUKTUK A
NUNAVUT

67°49'00.000" N
115°08'38.000" W
22.60 m
2300903
71938
YCO

Download Data

Hourly Data (October 2016)
Hourly Data Report for October 31, 2016
Temp Definition
°C
Dew Point Temp Definition
°C
Rel Hum Definition
%
Wind Dir Definition
10's deg

Wind Spd Definition
km/h
Visibility Definition
km
Stn Press Definition
kPa
Hmdx Definition


Wind Chill Definition


Weather Definition


TIME
00:00 Legend Double Dagger -19.9 -22.0 84 25 9 24.1 102.13   -27 Ice Crystals
01:00 Legend Double Dagger -21.3 -23.6 82 23 16 24.1 102.14   -31 Ice Crystals
02:00 Legend Double Dagger -21.5 -23.8 82 22 20 24.1 102.14   -32 Ice Crystals
03:00 Legend Double Dagger -22.0 -24.2 83 23 18 24.1 102.15   -32 Ice Crystals
04:00 Legend Double Dagger -20.2 -22.5 82 22 18 24.1 102.13   -30 Ice Crystals
05:00 Legend Double Dagger -18.9 -21.3 82 25 12 16.1 102.17   -27 Snow
06:00 Legend Double Dagger -17.6 -19.7 84 28 10 16.1 102.21   -24 Snow
07:00 Legend Double Dagger -16.5 -18.3 86 23 13 9.7 102.22   -24 Snow,Fog
08:00 Legend Double Dagger -16.8 -18.6 86 21 20 0.6 102.18   -26 Snow,Freezing Fog
09:00 Legend Double Dagger -16.0 -17.8 86 28 12 8.1 102.21   -23 Snow,Fog
10:00 Legend Double Dagger -15.5 -17.3 86 22 15 16.1 102.19   -24 Snow
11:00 Legend Double Dagger -15.7 -17.5 86 23 16 19.3 102.16   -24 Snow
12:00 Legend Double Dagger -16.2 -18.2 85 22 15 16.1 102.14   -24 Snow
13:00 Legend Double Dagger -15.0 -16.8 86 21 13 16.1 102.12   -22 Snow
14:00 Legend Double Dagger -14.8 -16.7 86 22 18 19.3 102.06   -23 Snow
15:00 Legend Double Dagger -15.0 -16.8 86 22 17 19.3 102.00   -23 LegendNANA
16:00 Legend Double Dagger -14.9 -16.6 87 21 16 4.8 101.97   -23 Snow,Fog
17:00 Legend Double Dagger -15.9 -17.7 86 22 15 6.4 101.92   -24 Snow,Fog
18:00 Legend Double Dagger -16.6 -18.6 85 22 15 0.8 101.87   -25 Snow,Freezing Fog
19:00 Legend Double Dagger -19.7 -22.0 82 21 16 2.4 101.82   -29 Snow,Fog
20:00 Legend Double Dagger -20.2 -22.4 83 23 16 2.0 101.73   -30 Fog
21:00 Legend Double Dagger -21.0 -23.3 82 20 13 8.1 101.65   -30 Fog
22:00 Legend Double Dagger -20.7 -23.0 82 22 15 19.3 101.60   -30 Ice Crystals
23:00 Legend Double Dagger -20.2 -22.5 82 23 26 16.1 101.50   -32 Ice Crystals

Notes on Data Quality.

Legend

  • E = Estimated
  • M = Missing
  • NA = Not Available
  • ‡ = Partner data that is not subject to review by the National Climate Archives
Date modified: